Location: Del Amo
(33.8464°N, 118.2104°W)
Time: 01:34:31
(UTC+00:00)

SR - Pass Details

Date: 27 September 2024
Orbit: 578 x 855 km, 66.7° (Epoch: 06 October)

Event Time Altitude Azimuth Distance (km) Brightness Sun altitude
Rises 03:22:27 0° 334° (NNW) 3,028 ? -21.3°
Reaches altitude 10° 03:24:41 10° 335° (NNW) 2,152 ? -21.8°
Maximum altitude 03:29:37 84° 64° (ENE) 744 ? -22.8°
Enters shadow 03:30:56 52° 147° (SSE) 929 ? -23.1°
Drops below altitude 10° 03:34:57 10° 153° (SSE) 2,325 - -23.9°
Sets 03:37:27 0° 154° (SSE) 3,290 - -24.4°
